DELTA 1 DEB, 10207

Orbit data source: Space-Track

DELTA 1 DEB, 10207 is space debris in LEO originally from a launch on Thu, 14 Jul 1977 UTC launched from the Air Force Eastern Test Range (AFETR). Debris objects in space refer to the collection of defunct objects orbiting the Earth. Examples of debris include non-operational satellites, rocket bodies, and fragments generated from explosions, collisions, or faulty payload assembly.

Loading next visibility...
Identifier
10207, 1977-065AL
Orbit
LEO
Last TLE update
17 hours ago
Origin
Manufacturer
Unknown
Mission
Spacecraft
Bus & Motor
Unknown
Mass
Unknown
Launch date (UTC)
1977-07-14 (48 years ago)
Launch vehicle
Unknown
Launch site
Air Force Eastern Test Range (AFETR)
Object type
Payload
Rocket body
Debris
Shape & HBR
Unknown
Radar Cross Section
Medium (>0.1 m² and <1 m²)

Expand to show TLE details & history

TLE from 17 hours ago
0 DELTA 1 DEB
1 10207U 77065AL  25181.65429137  .00001555  00000-0  27833-2 0  9990
2 10207  29.0860   7.6502 0678916 146.8881 217.6087 12.73115271209350
Epoch: 2025-06-30T15:42Z
TLE epoch observation values (Epoch: 2025-06-30T15:42:10.774Z)
Latitude
0.00002°
Longitude
-146.85565°
Altitude
1,796.648 km
Speed
6.79 km/s
True Right ascension
00h 30m 36s
True Declination
0° 00' 00"
Sunlit
Object was in daylight at epoch
Visualization orbit readout
Latitude
-15.83463°
Longitude
179.53799°
Altitude
1,893.907 km
Speed
6.706 km/s
Apparent Right ascension
00h 34m 57s
Apparent Declination
-53° 27' 27"
Sunlit
Object is in daylight
Visualization observer readout
Local Sidereal Time
20:04:21
Azimuth
144.128° SSE
Elevation
-19.989°
Doppler factor
1
Orbital elements
Apogee altitude
1,899.212 km
Perigee altitude
846.741 km
Semi-major axis
7,751.114 km
Eccentricity
0.06789
Inclination
29.086°
RAAN
7.6502°
Arg. of periapsis
146.8881°
True anomaly
Unknown
Mean anomaly
217.6087°
Eccentric anomaly
Unknown
Mean motion
3.18051 °/min
Orbital period
113.19 mins
BSTAR
0.0027833
Loading maneuver chart data...
Loading SW <> Apogee altitude chart data...
Loading historical data...
Loading historical data...
Loading historical data...
Loading historical data...
Loading historical data...
Loading historical data...
Loading historical data...

DELTA 1 DEB Visibility forecast

Observer location: undefined°, undefined°

Span
Click to sort rows by Start time (UTC) header in descending order
Start Az.
Max El. time (UTC)
Max El. Az.
Max El.
End time (UTC)
End Az.
10 mins2025-07-01 14:26:14.666Z189.403° SSW2025-07-01 14:31:14.666Z158.523° S16.651°2025-07-01 14:36:14.666Z122.545° SE
13 mins2025-07-01 16:25:14.666Z221.746° SW2025-07-01 16:32:14.666Z165.076° S27.157°2025-07-01 16:38:14.666Z110.519° ESE
11 mins2025-07-01 18:26:14.666Z240.791° WSW2025-07-01 18:32:14.666Z180.788° SSW29.877°2025-07-01 18:37:14.666Z123.556° SE
8 mins2025-07-01 20:28:14.666Z237.501° WSW2025-07-01 20:31:14.666Z205.266° SW21.309°2025-07-01 20:36:14.666Z148.759° SSE
|